Terminal Aerodrome Forecast
Issued by NWS

Current Version | Previous Version | Graphics & Text | Print | Product List | Glossary On
Versions: 1 2 3 4 5 6 7 8 9 10 11 12 13 14 15 16 17 18 19 20 21 22 23 24 25
000
FTUS41 KRLX 150500
TAFCKB
TAF
KCKB 150536Z 1506/1606 19007KT P6SM SCT070
     FM150800 20008KT P6SM BKN060
     FM151000 26010G15KT P6SM OVC030
     FM151100 28012G20KT 5SM -SHRA OVC016
     FM151400 29012G21KT 4SM -SHRA OVC009
     FM151700 29010G18KT 5SM -SHRA OVC012
     FM152100 29011G17KT P6SM BKN023
     FM160400 31007KT P6SM SCT028=

USA.gov is the U.S. government's official web portal to all federal, state and local government web resources and services.